Location: York
(31.8935°S, 116.7682°E)
Time: 01:23:55
(UTC+08:00)

Tiros 1 - All Passes

Search period start: 19 June 2021 00:00
Search period end: 29 June 2021 00:00
Orbit: 630 x 664 km, 48.4° (Epoch: 17 June)

Date Brightness Start Highest point End Pass type
(mag) Time Alt. Az. Time Alt. Az. Time Alt. Az.
19 Jun - 00:07:34 10° WSW 00:10:34 16° SSW 00:13:33 10° SSE night (unlit)
19 Jun - 01:53:34 10° S 01:54:27 10° S 01:55:20 10° SSE night (unlit)
19 Jun - 03:34:49 10° SSW 03:38:14 19° SSE 03:41:37 10° ESE visible
19 Jun - 05:16:15 10° SW 05:20:59 82° SE 05:25:38 10° NE visible
19 Jun - 07:00:25 10° W 07:02:39 13° NW 07:04:52 10° NNW daylight
19 Jun - 21:06:40 10° NNW 21:11:22 55° NE 21:16:05 10° ESE night (unlit)
19 Jun - 22:49:36 10° W 22:53:46 28° SSW 22:57:56 10° SSE night (unlit)
20 Jun - 00:35:34 10° SSW 00:37:16 12° S 00:38:58 10° SSE night (unlit)
20 Jun - 02:19:13 10° SSW 02:21:16 12° SSE 02:23:17 10° SE night (unlit)
20 Jun - 04:00:18 10° SW 04:04:37 34° SSE 04:08:53 10° E visible
20 Jun - 05:42:27 10° WSW 05:46:50 39° NW 05:51:09 10° NNE visible
20 Jun - 19:52:01 10° N 19:55:26 19° NE 19:58:53 10° E visible
20 Jun - 21:32:31 10° WNW 21:37:18 63° SW 21:42:05 10° SE night (unlit)
20 Jun - 23:17:05 10° WSW 23:20:15 17° SSW 23:23:23 10° SSE night (unlit)
21 Jun - 01:03:12 10° S 01:04:06 10° S 01:05:01 10° SSE night (unlit)
21 Jun - 02:44:37 10° SSW 02:47:55 18° SSE 02:51:12 10° ESE night (unlit)
21 Jun - 04:26:00 10° SW 04:30:45 74° SE 04:35:24 10° NE visible
21 Jun - 06:09:49 10° W 06:12:28 15° NW 06:15:05 10° NNW visible
21 Jun - 20:16:29 10° NNW 20:21:08 49° NE 20:25:48 10° ESE visible
21 Jun - 21:59:12 10° W 22:03:29 30° SSW 22:07:45 10° SSE night (unlit)
21 Jun - 23:45:03 10° SSW 23:46:56 12° S 23:48:48 10° SSE night (unlit)
22 Jun - 01:29:00 10° SSW 01:30:56 12° S 01:32:51 10° SE night (unlit)
22 Jun - 03:10:05 10° SSW 03:14:21 31° SSE 03:18:32 10° E visible
22 Jun - 04:52:08 10° WSW 04:56:37 44° NW 05:01:01 10° NNE visible
22 Jun - 19:02:03 10° N 19:05:13 18° NE 19:08:25 10° E visible
22 Jun - 20:42:13 10° WNW 20:47:02 69° SW 20:51:51 10° SE visible
22 Jun - 22:26:37 10° WSW 22:29:55 18° SSW 22:33:13 10° SSE night (unlit)
23 Jun - 00:12:48 10° SSW 00:13:45 10° S 00:14:44 10° SSE night (unlit)
23 Jun - 01:54:24 10° SSW 01:57:37 17° SSE 02:00:47 10° ESE night (unlit)
23 Jun - 03:35:46 10° SW 03:40:30 68° SE 03:45:09 10° ENE visible
23 Jun - 05:19:16 10° W 05:22:16 17° NW 05:25:13 10° NNW visible
23 Jun - 19:26:19 10° NNW 19:30:54 44° NE 19:35:30 10° ESE visible
23 Jun - 21:08:50 10° W 21:13:11 32° SSW 21:17:33 10° SSE visible
23 Jun - 22:54:32 10° SW 22:56:36 12° SSW 22:58:38 10° SSE night (unlit)
24 Jun - 00:38:47 10° SSW 00:40:35 12° S 00:42:25 10° SSE night (unlit)
24 Jun - 02:19:52 10° SSW 02:24:04 29° SSE 02:28:11 10° E night (unlit)
24 Jun - 04:01:50 10° WSW 04:06:23 49° NW 04:10:52 10° NNE visible
24 Jun - 18:12:09 10° NNE 18:15:00 16° NE 18:17:54 10° E visible
24 Jun - 19:51:56 10° NW 19:56:46 75° SW 20:01:38 10° SE visible
24 Jun - 21:36:10 10° WSW 21:39:36 19° SSW 21:43:02 10° SSE night (unlit)
24 Jun - 23:22:21 10° SSW 23:23:25 11° S 23:24:27 10° S night (unlit)
25 Jun - 01:04:12 10° SSW 01:07:18 17° SSE 01:10:21 10° ESE night (unlit)
25 Jun - 02:45:31 10° SW 02:50:15 62° SE 02:54:53 10° ENE night (unlit)
25 Jun - 04:28:47 10° W 04:32:04 19° NW 04:35:19 10° N visible
25 Jun - 18:36:09 10° NNW 18:40:39 40° NE 18:45:11 10° ESE visible
25 Jun - 20:18:27 10° W 20:22:54 35° SSW 20:27:20 10° SE visible
25 Jun - 22:04:02 10° SW 22:06:15 13° SSW 22:08:27 10° SSE night (unlit)
25 Jun - 23:48:32 10° SSW 23:50:15 12° S 23:51:57 10° SSE night (unlit)
26 Jun - 01:29:39 10° SSW 01:33:46 28° SSE 01:37:50 10° E night (unlit)
26 Jun - 03:11:32 10° WSW 03:16:10 54° NW 03:20:44 10° NNE night (unlit)
26 Jun - 17:22:18 10° NNE 17:24:48 14° NE 17:27:19 10° E daylight
26 Jun - 19:01:39 10° NW 19:06:30 82° SW 19:11:22 10° SE visible
26 Jun - 20:45:43 10° WSW 20:49:17 20° SSW 20:52:50 10° SSE visible
26 Jun - 22:31:55 10° SSW 22:33:04 11° S 22:34:12 10° S night (unlit)
27 Jun - 00:13:59 10° SSW 00:16:58 16° SSE 00:19:55 10° ESE night (unlit)
27 Jun - 01:55:17 10° SW 01:59:59 56° SE 02:04:37 10° ENE night (unlit)
27 Jun - 03:38:20 10° W 03:41:52 21° NW 03:45:21 10° N night (unlit)
27 Jun - 17:46:01 10° NNW 17:50:25 36° NE 17:54:52 10° ESE visible
27 Jun - 19:28:05 10° W 19:32:35 37° SSW 19:37:07 10° SE visible
27 Jun - 21:13:32 10° SW 21:15:54 13° SSW 21:18:16 10° SSE visible
27 Jun - 22:58:17 10° SSW 22:59:54 11° S 23:01:31 10° SSE night (unlit)
28 Jun - 00:39:26 10° SSW 00:43:29 26° SSE 00:47:28 10° E night (unlit)
28 Jun - 02:21:15 10° WSW 02:25:56 60° NW 02:30:33 10° NE night (unlit)
28 Jun - 16:32:34 10° NNE 16:34:36 13° NE 16:36:37 10° ENE daylight
28 Jun - 18:11:24 10° NW 18:16:14 90° SSW 18:21:08 10° SE visible
28 Jun - 19:55:17 10° WSW 19:58:57 21° SSW 20:02:39 10° SSE visible
28 Jun - 21:41:27 10° SSW 21:42:43 11° S 21:43:57 10° SSE night (unlit)
28 Jun - 23:23:47 10° SSW 23:26:39 15° SSE 23:29:29 10° SE night (unlit)
